Zurück zum Katalog

SL-8 DEB

AktivLEO
NORAD 56999·DEBRIS·🇷🇺 Russia

Gestartet Nov 1, 1972 von Plesetsk Cosmodrome

Loading…

Nächste Überflüge (nächste 24 Stunden)

TLE

VeraltetSource: Space-Track

Epoche: Sep 1, 2026, 08:45 UTC

1 56999U 72087K   26244.36463626 -.00000012  00000-0  28881-4 0  9991
2 56999  74.0342 250.3958 0081252 319.4365  40.0641 12.35604505576454

Verfolge SL-8 DEB in Echtzeit mit AllMySat

Download on the App Store